x

8413320 - Bar Harbor, Me (atgm1) Weather Station

9:30 - Sat 20th Dec 2014 All times are EST. -5 hours from GMT.

  • Wind
    14mph, 20mph gusts
  • Sea Temp 42°f
  • Aire Temp 25°f
  • Sea Pressure 1027mb
  • 8413320 - Bar Harbor, Me
  • 8413320 - Bar Harbor, Me

More Historic Weather Station data

Upgrade to MSW Pro to gain access to the past 30 days of data for over 8000 Wavebouys and Weather Stations around the globe.

Join Pro

Comparision Forecast

View Surf forecast
   
sáb 12/20 9:30 14 20 mph 1027mb 42f 25f
9:24 15 17 mph 1026.9mb 42f 24f
9:18 10 20 mph 1026.9mb 42f 24f
9:12 14 20 mph 1026.8mb 42f 24f
9:06 14 18 mph 1026.8mb 42f 24f
9:00 14 18 mph 1026.8mb 42f 24f
8:54 14 21 mph 1026.7mb 42f 24f
8:48 14 20 mph 1026.6mb 42f 24f
8:42 16 20 mph 1026.5mb 42f 24f
8:36 15 20 mph 1026.5mb 42f 24f
8:30 16 21 mph 1026.4mb 42f 24f
8:24 14 21 mph 1026.3mb 42f 24f
8:18 14 22 mph 1026.2mb 42f 24f
8:12 16 21 mph 1026.2mb 42f 24f
8:06 14 18 mph 1026.2mb 42f 24f
8:00 15 21 mph 1026.1mb 42f 23f
7:54 11 18 mph 1026mb 42f 24f
7:48 16 24 mph 1025.9mb 43f 23f
7:42 14 21 mph 1025.9mb 43f 24f
7:36 17 24 mph 1025.8mb 43f 23f
7:30 20 24 mph 1025.6mb 43f 23f
7:24 17 23 mph 1025.6mb 43f 24f
7:18 16 22 mph 1025.3mb 43f 24f
7:12 17 23 mph 1025.2mb 43f 24f
7:06 15 21 mph 1025.1mb 43f 25f
7:00 15 20 mph 1024.9mb 43f 25f
6:54 14 20 mph 1024.9mb 43f 25f
6:48 16 21 mph 1024.8mb 43f 25f
6:42 15 21 mph 1024.7mb 43f 25f
6:36 15 20 mph 1024.7mb 43f 25f
6:30 15 21 mph 1024.6mb 43f 25f
6:24 17 21 mph 1024.5mb 43f 25f
6:18 17 21 mph 1024.4mb 43f 25f
6:12 17 20 mph 1024.3mb 43f 26f
6:06 16 21 mph 1024.3mb 43f 26f
6:00 16 21 mph 1024.1mb 43f 26f
5:54 15 20 mph 1024.1mb 43f 26f
5:48 17 20 mph 1024.1mb 43f 26f
5:42 16 20 mph 1024mb 43f 26f
5:36 16 18 mph 1024mb 43f 26f
5:30 14 18 mph 1023.9mb 43f 26f
5:24 13 20 mph 1023.8mb 43f 26f
5:18 15 20 mph 1023.6mb 43f 26f
5:12 14 20 mph 1023.5mb 43f 26f
5:06 13 17 mph 1023.5mb 43f 26f
5:00 11 15 mph 1023.5mb 43f 26f
4:54 9 13 mph 1023.5mb 43f 26f
4:48 5 9 mph 1023.5mb 43f 26f
4:42 7 10 mph 1023.4mb 43f 26f
4:36 7 10 mph 1023.3mb 43f 26f
4:30 5 10 mph 1023.2mb 43f 26f
4:24 6 9 mph 1023mb 43f 26f
4:18 7 13 mph 1023mb 43f 26f
4:12 9 13 mph 1022.9mb 43f 26f
4:06 7 11 mph 1022.8mb 43f 27f
4:00 9 14 mph 1022.6mb 43f 27f
3:54 8 15 mph 1022.5mb 43f 27f
3:48 8 13 mph 1022.4mb 43f 27f
3:42 9 13 mph 1022.3mb 43f 27f
3:36 7 9 mph 1022.2mb 43f 27f
3:30 8 11 mph 1022.1mb 43f 27f
3:24 7 14 mph 1022.1mb 43f 27f
3:18 8 13 mph 1022mb 43f 27f
3:12 8 13 mph 1022mb 43f 27f
3:06 7 10 mph 1021.9mb 43f 27f
3:00 9 10 mph 1021.9mb 43f 27f
2:54 7 10 mph 1021.9mb 43f 27f
2:48 7 10 mph 1021.9mb 43f 27f
2:42 8 13 mph 1021.8mb 43f 27f
2:36 8 10 mph 1021.8mb 43f 27f
2:30 7 11 mph 1021.7mb 43f 27f
2:24 6 13 mph 1021.6mb 43f 27f
2:18 9 13 mph 1021.6mb 42f 26f
2:12 8 11 mph 1021.5mb 42f 26f
2:06 7 11 mph 1021.5mb 42f 26f
2:00 7 11 mph 1021.4mb 42f 27f
1:54 9 14 mph 1021.3mb 42f 26f
1:48 8 14 mph 1021.2mb 42f 26f
1:42 9 14 mph 1021.1mb 42f 26f
1:36 13 18 mph 1021.1mb 42f 26f
1:30 9 16 mph 1021.1mb 42f 26f
1:24 11 16 mph 1021mb 42f 27f
1:18 10 18 mph 1020.9mb 42f 26f
1:12 10 16 mph 1020.9mb 42f 26f
1:06 11 15 mph 1020.8mb 42f 27f
1:00 9 14 mph 1020.7mb 42f 27f
12:54 7 15 mph 1020.7mb 42f 27f
12:48 11 17 mph 1020.6mb 42f 26f
12:42 10 16 mph 1020.6mb 42f 27f
12:36 10 14 mph 1020.6mb 42f 27f
12:30 9 17 mph 1020.5mb 42f 27f
12:24 9 14 mph 1020.4mb 42f 27f
12:18 9 16 mph 1020.4mb 42f 27f
12:12 11 16 mph 1020.4mb 42f 27f
12:06 10 16 mph 1020.2mb 42f 27f
12:00 13 16 mph 1020.2mb 42f 27f
vie 12/19 11:54 10 16 mph 1020.1mb 42f 27f
11:48 11 15 mph 1020mb 42f 27f
11:42 11 17 mph 1019.9mb 42f 27f
11:36 10 15 mph 1019.8mb 42f 27f
11:30 10 16 mph 1019.8mb 42f 27f
11:24 10 16 mph 1019.8mb 42f 27f
11:18 9 17 mph 1019.6mb 42f 27f
11:12 10 15 mph 1019.6mb 42f 27f
11:06 10 15 mph 1019.6mb 42f 27f
11:00 11 16 mph 1019.4mb 42f 27f
10:54 9 13 mph 1019.3mb 42f 28f
10:48 9 15 mph 1019.3mb 43f 28f
10:42 10 16 mph 1019.2mb 42f 28f
10:36 11 15 mph 1019.2mb 42f 28f
10:30 10 16 mph 1019.1mb 42f 28f
10:24 9 15 mph 1019.1mb 42f 28f
10:18 9 16 mph 1019.1mb 42f 28f
10:12 13 20 mph 1018.9mb 42f 28f
10:06 10 15 mph 1018.9mb 42f 28f
10:00 7 18 mph 1018.9mb 42f 29f
9:54 7 15 mph 1018.8mb 42f 29f
9:48 9 17 mph 1018.7mb 42f 29f
9:42 10 20 mph 1018.7mb 42f 29f
9:36 14 18 mph 1018.6mb 42f 29f
9:30 11 18 mph 1018.5mb 42f 29f
9:24 11 20 mph 1018.4mb 42f 29f
9:18 13 20 mph 1018.3mb 42f 29f
9:12 14 21 mph 1018.2mb 42f 29f
9:00 13 17 mph 1018mb 42f 29f
8:54 11 16 mph 1017.9mb 42f 29f
8:48 14 16 mph 1017.9mb 43f 29f
8:42 10 18 mph 1017.8mb 43f 30f
8:36 11 16 mph 1017.7mb 42f 30f
8:30 13 17 mph 1017.6mb 42f 30f
8:24 13 17 mph 1017.6mb 42f 30f
8:18 11 18 mph 1017.6mb 42f 30f
8:12 13 18 mph 1017.5mb 42f 30f
8:06 11 17 mph 1017.4mb 42f 30f
8:00 14 18 mph 1017.3mb 42f 30f
7:54 11 16 mph 1017.2mb 42f 31f
7:48 10 16 mph 1017.1mb 42f 31f
7:42 13 17 mph 1017mb 42f 31f
7:36 11 20 mph 1016.9mb 42f 31f
7:30 11 16 mph 1016.8mb 42f 31f
7:24 11 17 mph 1016.7mb 41f 31f
7:18 14 18 mph 1016.7mb 41f 31f
7:12 11 18 mph 1016.6mb 42f 31f
7:06 11 20 mph 1016.5mb 43f 31f
7:00 11 18 mph 1016.4mb 43f 31f
6:54 14 17 mph 1016.3mb 43f 31f
6:48 10 16 mph 1016.2mb 43f 31f
6:42 13 18 mph 1016.1mb 43f 31f
6:36 13 20 mph 1016mb 43f 31f
6:30 10 16 mph 1015.9mb 43f 32f
6:24 13 17 mph 1015.8mb 43f 31f
6:18 13 18 mph 1015.7mb 43f 31f
6:12 15 18 mph 1015.6mb 43f 31f
6:06 13 17 mph 1015.5mb 43f 31f
6:00 13 20 mph 1015.3mb 43f 31f
5:54 13 16 mph 1015.3mb 43f 31f
5:48 11 18 mph 1015.1mb 43f 31f
5:42 14 17 mph 1014.9mb 43f 32f
5:36 11 20 mph 1014.8mb 43f 32f
5:30 11 17 mph 1014.6mb 43f 32f
5:24 11 20 mph 1014.5mb 43f 32f
5:12 14 17 mph 1014.3mb 43f 32f
5:06 14 17 mph 1014.2mb 43f 31f
5:00 14 22 mph 1014.1mb 43f 32f
4:54 16 20 mph 1014mb 43f 32f
4:48 14 20 mph 1013.9mb 43f 32f
4:42 14 20 mph 1013.8mb 42f 32f
4:36 14 20 mph 1013.7mb 42f 32f
4:30 14 20 mph 1013.6mb 42f 32f
4:24 16 23 mph 1013.5mb 42f 32f
4:18 16 21 mph 1013.4mb 42f 32f
4:12 16 22 mph 1013.3mb 42f 32f
4:06 16 21 mph 1013.2mb 42f 32f
4:00 17 22 mph 1013.1mb 42f 32f
3:54 17 22 mph 1013mb 42f 32f
3:48 17 21 mph 1012.9mb 42f 32f
3:42 18 23 mph 1012.8mb 42f 32f
3:36 17 21 mph 1012.9mb 42f 32f
3:30 16 21 mph 1012.9mb 42f 32f
3:24 15 18 mph 1012.8mb 42f 32f
3:18 17 21 mph 1012.8mb 42f 32f
3:12 17 22 mph 1012.7mb 42f 32f
3:06 18 23 mph 1012.5mb 42f 32f
3:00 15 20 mph 1012.4mb 42f 32f
2:54 17 21 mph 1012.3mb 42f 31f
2:48 16 18 mph 1012.3mb 42f 32f
2:42 15 23 mph 1012.4mb 42f 32f
2:36 18 22 mph 1012.4mb 42f 32f
2:30 17 23 mph 1012.3mb 42f 32f
2:24 17 22 mph 1012.2mb 42f 32f
2:18 17 22 mph 1012.1mb 42f 31f
2:12 17 25 mph 1012.1mb 42f 31f
2:06 21 24 mph 1012.1mb 42f 31f
2:00 20 23 mph 1011.9mb 42f 31f
1:54 21 24 mph 1011.8mb 42f 31f
1:48 20 25 mph 1011.8mb 42f 32f
1:42 20 24 mph 1011.8mb 42f 31f
1:36 15 21 mph 1011.8mb 42f 31f
1:30 16 22 mph 1011.7mb 42f 31f
1:24 18 22 mph 1011.6mb 42f 31f
1:18 18 26 mph 1011.6mb 42f 31f
1:12 17 22 mph 1011.5mb 42f 31f
1:06 18 21 mph 1011.5mb 42f 31f
1:00 18 24 mph 1011.5mb 42f 31f
12:54 18 24 mph 1011.5mb 42f 31f
12:48 17 21 mph 1011.5mb 42f 31f
12:42 20 23 mph 1011.4mb 42f 32f
12:36 18 23 mph 1011.3mb 42f 31f
12:24 16 22 mph 1011.2mb 42f 32f
12:18 15 22 mph 1011mb 42f 32f
12:12 16 21 mph 1011mb 42f 31f
12:06 16 21 mph 1011mb 42f 32f
12:00 15 21 mph 1011mb 42f 31f
11:54 17 22 mph 1010.8mb 42f 31f
11:48 20 24 mph 1010.9mb 42f 31f
11:42 20 24 mph 1010.9mb 42f 31f
11:36 21 23 mph 1010.9mb 42f 31f
11:30 20 22 mph 1011mb 42f 31f
11:24 16 22 mph 1011mb 42f 31f
11:18 18 24 mph 1011.1mb 42f 31f
11:12 18 24 mph 1011.1mb 42f 31f
11:06 16 21 mph 1011.1mb 42f 31f
11:00 18 23 mph 1011.2mb 42f 31f
10:54 17 23 mph 1011.2mb 42f 31f
10:48 20 23 mph 1011.2mb 42f 31f
10:42 16 22 mph 1011.2mb 42f 31f
10:36 15 20 mph 1011.2mb 42f 31f
10:30 16 20 mph 1011.4mb 42f 31f
10:24 15 21 mph 1011.4mb 42f 31f
10:18 14 20 mph 1011.4mb 42f 31f
10:12 15 21 mph 1011.4mb 42f 31f
10:06 14 21 mph 1011.5mb 42f 31f
10:00 11 18 mph 1011.6mb 42f 31f
9:54 15 21 mph 1011.6mb 42f 30f
9:48 15 20 mph 1011.5mb 42f 31f
9:42 17 23 mph 1011.6mb 42f 30f
9:36 17 24 mph 1011.7mb 42f 30f
9:30 16 28 mph 1011.6mb 42f 31f
9:24 17 22 mph 1011.6mb 42f 31f
9:18 16 22 mph 1011.6mb 42f 31f
9:12 16 24 mph 1011.5mb 42f 31f
9:06 17 22 mph 1011.3mb 42f 31f
9:00 17 22 mph 1011.2mb 42f 30f
8:54 16 21 mph 1011.2mb 42f 31f
8:48 16 25 mph 1011.3mb 42f 31f
8:42 16 26 mph 1011.2mb 42f 31f
8:36 15 23 mph 1011mb 42f 31f
8:30 16 23 mph 1011mb 42f 31f
8:24 20 23 mph 1010.8mb 42f 31f
8:18 17 22 mph 1010.7mb 42f 31f
8:12 16 21 mph 1010.6mb 42f 31f
8:06 16 21 mph 1010.5mb 42f 31f
8:00 14 17 mph 1010.3mb 42f 31f
7:54 16 21 mph 1010.3mb 42f 31f
7:48 14 18 mph 1010.1mb 42f 31f
7:42 15 21 mph 1010.3mb 42f 31f
7:36 16 18 mph 1010.2mb 42f 31f
7:30 15 20 mph 1010.2mb 42f 31f
7:24 14 18 mph 1010mb 42f 31f
7:18 16 20 mph 1010mb 42f 31f
7:12 17 22 mph 1009.9mb 43f 31f
7:06 18 22 mph 1009.8mb 43f 31f
7:00 17 21 mph 1009.7mb 43f 31f
6:54 16 21 mph 1009.5mb 43f 31f
6:48 16 21 mph 1009.3mb 42f 31f
6:42 16 21 mph 1009.3mb 42f 31f
6:36 16 22 mph 1009.1mb 42f 31f
6:30 15 20 mph 1008.9mb 43f 31f
6:24 16 20 mph 1008.9mb 43f 31f
6:18 16 18 mph 1008.9mb 42f 31f
6:12 15 22 mph 1008.8mb 42f 31f
6:06 17 20 mph 1008.7mb 42f 31f
6:00 16 23 mph 1008.6mb 43f 31f
5:54 17 23 mph 1008.4mb 43f 31f
5:48 18 23 mph 1008.4mb 43f 31f
5:42 17 21 mph 1008.4mb 43f 31f
5:36 16 21 mph 1008.3mb 43f 31f
5:30 16 20 mph 1008.2mb 43f 31f
5:24 16 18 mph 1008.2mb 43f 31f
5:18 15 18 mph 1008.2mb 43f 31f
5:12 15 20 mph 1008.3mb 43f 31f
5:06 15 20 mph 1008.1mb 43f 31f
5:00 16 20 mph 1008mb 43f 31f
4:54 16 18 mph 1008mb 43f 31f
4:48 16 22 mph 1007.9mb 43f 31f
4:42 17 21 mph 1007.8mb 42f 31f
4:36 16 20 mph 1007.8mb 42f 32f
4:30 17 20 mph 1007.8mb 42f 31f
4:24 17 20 mph 1007.8mb 42f 31f
4:18 16 18 mph 1007.7mb 42f 31f
4:12 15 20 mph 1007.7mb 42f 31f
4:06 16 18 mph 1007.7mb 42f 31f
4:00 16 20 mph 1007.7mb 42f 31f
3:54 15 21 mph 1007.5mb 42f 31f
3:48 15 20 mph 1007.4mb 42f 31f
3:42 16 21 mph 1007.4mb 43f 31f
3:36 16 20 mph 1007.3mb 43f 31f
3:30 16 20 mph 1007.3mb 43f 31f
3:24 16 18 mph 1007.2mb 43f 31f
3:06 14 17 mph 1007.4mb 42f 31f
3:00 14 21 mph 1007.4mb 42f 31f
2:54 14 21 mph 1007.4mb 42f 31f
2:48 15 17 mph 1007.5mb 42f 31f
2:42 14 17 mph 1007.4mb 42f 31f
2:36 15 20 mph 1007.4mb 42f 32f
2:30 15 20 mph 1007.3mb 42f 32f
2:24 14 20 mph 1007.2mb 42f 31f
2:18 15 20 mph 1007.2mb 42f 32f
2:12 15 21 mph 1007.2mb 42f 32f
2:06 20 23 mph 1007.1mb 42f 32f
2:00 20 24 mph 1007mb 42f 32f
1:54 21 24 mph 1007.1mb 42f 32f
1:48 21 25 mph 1007mb 42f 32f
1:42 18 23 mph 1006.9mb 42f 31f
1:36 18 23 mph 1006.9mb 42f 31f
1:30 16 23 mph 1006.9mb 42f 31f
1:24 16 21 mph 1006.8mb 42f 31f
1:18 20 25 mph 1006.8mb 42f 32f
1:12 22 26 mph 1006.8mb 42f 32f
1:06 22 24 mph 1006.7mb 42f 32f
12:54 22 26 mph 1006.5mb 42f 31f
12:48 22 28 mph 1006.4mb 42f 32f
12:42 24 30 mph 1006.5mb 42f 32f
12:36 24 30 mph 1006.5mb 42f 32f
12:30 25 29 mph 1006.4mb 42f 32f
12:24 23 31 mph 1006.4mb 42f 32f
12:18 24 30 mph 1006.4mb 42f 32f
12:12 22 28 mph 1006.5mb 42f 32f
12:06 22 31 mph 1006.5mb 42f 32f
12:00 22 26 mph 1006.4mb 42f 32f
jue 12/18 11:54 21 28 mph 1006.4mb 42f 32f
11:48 22 26 mph 1006.4mb 42f 32f
11:42 17 23 mph 1006.4mb 42f 32f
11:36 21 29 mph 1006.4mb 42f 32f
11:30 23 26 mph 1006.4mb 42f 32f
11:24 17 25 mph 1006.4mb 42f 32f
11:18 20 25 mph 1006.4mb 42f 33f
11:12 22 29 mph 1006.3mb 42f 32f
11:06 21 26 mph 1006.2mb 42f 32f
11:00 17 24 mph 1006.1mb 43f 33f
10:54 21 26 mph 1006.1mb 42f 33f
10:48 22 25 mph 1006.2mb 43f 33f
10:42 21 25 mph 1006.1mb 43f 33f
10:36 18 29 mph 1006.1mb 43f 33f
10:30 21 24 mph 1006.1mb 43f 33f
10:24 21 25 mph 1006mb 43f 32f
10:18 18 21 mph 1005.9mb 43f 33f
10:12 17 25 mph 1005.9mb 43f 33f
10:06 20 26 mph 1005.8mb 43f 33f
10:00 18 26 mph 1005.8mb 43f 32f
9:54 20 26 mph 1005.7mb 43f 32f
9:48 17 22 mph 1005.7mb 43f 32f
9:42 16 23 mph 1005.7mb 43f 33f
9:36 15 23 mph 1005.6mb 43f 32f
9:30 18 24 mph 1005.5mb 43f 32f
9:24 20 25 mph 1005.5mb 43f 32f
9:18 17 22 mph 1005.4mb 43f 32f
9:12 18 23 mph 1005.4mb 43f 32f
9:06 21 25 mph 1005.3mb 43f 32f
9:00 18 23 mph 1005.3mb 43f 32f
8:54 21 24 mph 1005.3mb 43f 32f
8:48 17 24 mph 1005.4mb 43f 32f
8:30 21 25 mph 1005.5mb 43f 32f
8:24 18 24 mph 1005.4mb 43f 32f
8:18 17 22 mph 1005.4mb 43f 32f
8:12 18 24 mph 1005.3mb 43f 32f
8:06 21 25 mph 1005.3mb 43f 32f
8:00 21 24 mph 1005.3mb 44f 32f
7:54 21 24 mph 1005.3mb 43f 32f
7:48 18 23 mph 1005.2mb 44f 32f
7:42 17 23 mph 1005.1mb 44f 32f
7:36 17 23 mph 1005.2mb 44f 32f
7:30 18 24 mph 1005.1mb 44f 32f
7:24 20 25 mph 1005.1mb 44f 32f
7:18 18 23 mph 1005mb 44f 32f
7:12 18 22 mph 1005mb 44f 32f
7:06 18 26 mph 1005mb 43f 32f
7:00 16 23 mph 1004.9mb 43f 32f
6:54 16 25 mph 1005mb 43f 32f
6:48 22 28 mph 1004.9mb 43f 32f
6:42 18 24 mph 1004.8mb 43f 32f
6:36 17 22 mph 1004.7mb 43f 32f
6:30 16 22 mph 1004.6mb 43f 32f
6:24 20 25 mph 1004.5mb 43f 32f
6:18 20 23 mph 1004.4mb 43f 32f
6:12 17 21 mph 1004.4mb 43f 32f
6:06 17 22 mph 1004.3mb 43f 32f
6:00 17 22 mph 1004.2mb 43f 32f
5:54 20 30 mph 1004.1mb 44f 32f
5:48 18 24 mph 1004.1mb 44f 32f
5:42 18 25 mph 1004mb 44f 32f
5:36 20 26 mph 1004mb 44f 32f
5:30 21 25 mph 1004mb 44f 32f
5:24 18 25 mph 1004mb 44f 32f
5:18 18 26 mph 1003.9mb 44f 32f
5:12 18 23 mph 1003.9mb 44f 32f
5:06 22 26 mph 1003.8mb 44f 32f
5:00 22 29 mph 1003.7mb 44f 32f
4:54 24 30 mph 1003.6mb 44f 33f
4:48 22 30 mph 1003.6mb 44f 33f
4:42 22 28 mph 1003.6mb 44f 33f
4:36 21 29 mph 1003.5mb 44f 33f
4:30 23 29 mph 1003.4mb 43f 33f
4:24 22 29 mph 1003.4mb 43f 33f
4:18 22 26 mph 1003.3mb 43f 33f
4:12 22 29 mph 1003.2mb 43f 33f
4:06 25 31 mph 1003.2mb 44f 33f
4:00 24 31 mph 1003.1mb 44f 33f
3:54 23 29 mph 1002.9mb 44f 33f
3:48 23 28 mph 1002.8mb 44f 33f
3:42 22 29 mph 1002.8mb 44f 33f
3:36 25 30 mph 1002.8mb 44f 33f
3:30 22 26 mph 1002.7mb 43f 33f
3:24 20 25 mph 1002.6mb 43f 33f
3:18 23 29 mph 1002.7mb 43f 33f
3:12 23 26 mph 1002.6mb 43f 33f
3:06 18 22 mph 1002.5mb 43f 33f
3:00 21 24 mph 1002.5mb 43f 33f
2:54 20 26 mph 1002.4mb 43f 33f
2:42 21 25 mph 1002.3mb 43f 34f
2:36 20 23 mph 1002.3mb 43f 34f
2:30 16 26 mph 1002.2mb 43f 34f
2:24 15 24 mph 1002.1mb 43f 34f
2:18 16 22 mph 1002mb 43f 34f
2:12 14 21 mph 1002mb 43f 33f
2:06 20 24 mph 1001.9mb 43f 33f
2:00 18 26 mph 1001.9mb 43f 33f
1:54 24 29 mph 1001.8mb 43f 34f
1:48 22 28 mph 1001.8mb 43f 34f
1:42 20 26 mph 1001.7mb 43f 34f
1:36 20 26 mph 1001.7mb 43f 33f
1:30 18 25 mph 1001.7mb 43f 34f
1:24 20 24 mph 1001.7mb 43f 34f
1:18 22 29 mph 1001.7mb 43f 34f
1:06 18 24 mph 1001.6mb 43f 34f
1:00 22 25 mph 1001.6mb 43f 34f
12:54 20 24 mph 1001.5mb 43f 33f
12:48 17 25 mph 1001.5mb 43f 33f
12:42 16 22 mph 1001.5mb 43f 34f
12:36 18 22 mph 1001.5mb 43f 34f
12:30 20 24 mph 1001.5mb 43f 34f
12:24 18 23 mph 1001.5mb 43f 33f
12:18 14 18 mph 1001.5mb 43f 34f
12:12 17 22 mph 1001.5mb 43f 34f
12:06 17 21 mph 1001.5mb 43f 34f
12:00 18 21 mph 1001.5mb 43f 34f
11:54 18 22 mph 1001.4mb 43f 34f
11:48 17 22 mph 1001.5mb 43f 34f
11:42 20 23 mph 1001.5mb 43f 34f
11:36 18 22 mph 1001.5mb 43f 33f
11:30 18 22 mph 1001.5mb 43f 34f
11:24 18 23 mph 1001.6mb 43f 33f
11:18 21 24 mph 1001.6mb 43f 34f
11:12 15 18 mph 1001.6mb 43f 33f
11:06 17 22 mph 1001.6mb 43f 33f
11:00 17 23 mph 1001.7mb 43f 33f
10:54 20 23 mph 1001.8mb 43f 33f
10:48 20 24 mph 1001.8mb 44f 33f
10:42 20 29 mph 1001.9mb 44f 33f
10:36 23 28 mph 1001.9mb 44f 33f
10:30 20 22 mph 1001.8mb 44f 33f
10:24 18 28 mph 1001.9mb 44f 33f
10:18 18 28 mph 1002mb 44f 33f
10:12 20 28 mph 1002mb 44f 33f
10:06 20 28 mph 1002.1mb 44f 33f
10:00 22 26 mph 1002.1mb 44f 33f
9:54 22 25 mph 1002mb 44f 33f
9:48 21 25 mph 1002mb 44f 33f
9:42 20 25 mph 1002mb 44f 33f
9:36 21 24 mph 1001.9mb 44f 33f
9:30 17 23 mph 1001.9mb 44f 33f
9:24 21 23 mph 1001.9mb 44f 33f
9:18 17 23 mph 1001.8mb 44f 33f
9:12 20 23 mph 1001.8mb 44f 33f
9:06 18 23 mph 1001.8mb 44f 33f
8:54 20 23 mph 1001.6mb 44f 33f
8:48 17 23 mph 1001.6mb 44f 33f
8:42 18 21 mph 1001.5mb 44f 33f
8:30 18 24 mph 1001.4mb 44f 33f
8:24 17 22 mph 1001.4mb 44f 33f
8:18 16 20 mph 1001.4mb 44f 33f
8:12 17 22 mph 1001.3mb 44f 33f
8:06 16 22 mph 1001.3mb 44f 33f
8:00 17 20 mph 1001.3mb 44f 32f
7:54 17 22 mph 1001.2mb 44f 33f
7:48 16 21 mph 1001.2mb 44f 33f
7:42 16 22 mph 1001.2mb 44f 33f
7:36 18 22 mph 1001.1mb 44f 33f
7:30 17 21 mph 1001.1mb 44f 33f
7:24 17 22 mph 1001mb 44f 33f
7:18 18 22 mph 1001mb 44f 33f
7:12 16 22 mph 1000.9mb 44f 33f
7:06 18 22 mph 1000.9mb 44f 33f
7:00 16 23 mph 1000.9mb 44f 33f
6:54 17 22 mph 1000.8mb 44f 33f
6:48 16 21 mph 1000.9mb 44f 33f
6:42 17 21 mph 1000.8mb 44f 33f
6:36 15 21 mph 1000.8mb 44f 33f
6:30 16 18 mph 1000.8mb 44f 33f
6:24 14 18 mph 1000.8mb 44f 33f
6:18 18 22 mph 1000.8mb 44f 33f
6:12 16 20 mph 1000.7mb 44f 33f
6:06 18 22 mph 1000.7mb 44f 33f
6:00 18 24 mph 1000.7mb 44f 33f
5:54 16 22 mph 1000.7mb 44f 33f
5:48 18 23 mph 1000.6mb 44f 33f
5:42 20 23 mph 1000.5mb 44f 33f
5:36 17 22 mph 1000.5mb 44f 34f
5:30 17 21 mph 1000.4mb 44f 33f
5:24 16 20 mph 1000.3mb 44f 34f
5:18 15 17 mph 1000.3mb 44f 34f
5:12 15 21 mph 1000.3mb 44f 34f
5:06 16 20 mph 1000.3mb 44f 34f
5:00 17 22 mph 1000.3mb 44f 33f
4:54 18 23 mph 1000.2mb 44f 34f
4:48 15 17 mph 1000.2mb 44f 34f
4:42 17 21 mph 1000.2mb 44f 33f
4:36 16 20 mph 1000.2mb 44f 33f
4:30 18 22 mph 1000.3mb 44f 33f
4:24 16 18 mph 1000.2mb 44f 33f
4:18 16 20 mph 1000.3mb 44f 34f
4:12 14 20 mph 1000.3mb 44f 35f
4:06 14 21 mph 1000.3mb 44f 34f
4:00 17 18 mph 1000.2mb 44f 34f
3:54 15 21 mph 1000.2mb 44f 34f
3:48 15 21 mph 1000.2mb 44f 34f
3:42 17 20 mph 1000.2mb 44f 34f
3:36 15 18 mph 1000.2mb 44f 35f
3:30 15 18 mph 1000.2mb 44f 34f
3:24 15 18 mph 1000.2mb 44f 34f
3:18 14 18 mph 1000.3mb 44f 35f
3:12 14 18 mph 1000.2mb 44f 35f
3:06 15 18 mph 1000.2mb 44f 34f
3:00 14 20 mph 1000.1mb 44f 35f
2:54 14 20 mph 1000.1mb 44f 35f
2:48 14 17 mph 1000.2mb 44f 35f
2:42 14 20 mph 1000.2mb 44f 35f
2:36 15 20 mph 1000.3mb 44f 35f
2:30 14 17 mph 1000.4mb 44f 35f
2:24 15 17 mph 1000.5mb 44f 35f
2:18 13 21 mph 1000.5mb 44f 35f
2:12 15 20 mph 1000.6mb 44f 35f
2:06 16 20 mph 1000.5mb 44f 34f
2:00 15 18 mph 1000.5mb 44f 35f
1:54 14 18 mph 1000.5mb 44f 35f
1:48 15 18 mph 1000.5mb 44f 35f
1:42 14 17 mph 1000.5mb 44f 35f
1:36 15 18 mph 1000.4mb 44f 35f
1:30 14 17 mph 1000.4mb 44f 35f
1:24 13 16 mph 1000.3mb 44f 35f
1:18 14 17 mph 1000.3mb 44f 35f
1:12 14 16 mph 1000.3mb 44f 35f
1:06 10 15 mph 1000.3mb 44f 36f
1:00 14 17 mph 1000.3mb 44f 35f
12:54 13 16 mph 1000.2mb 44f 36f
12:48 14 17 mph 1000.2mb 44f 36f
12:42 14 16 mph 1000.2mb 44f 36f
12:36 13 18 mph 1000.2mb 44f 36f
12:30 14 17 mph 1000.2mb 44f 36f
12:24 11 16 mph 1000.3mb 44f 36f
12:18 13 17 mph 1000.3mb 44f 36f
12:12 11 16 mph 1000.4mb 44f 36f
12:06 13 16 mph 1000.5mb 44f 36f
12:00 11 14 mph 1000.5mb 44f 35f
mié 12/17 11:54 10 15 mph 1000.5mb 44f 35f
11:48 11 15 mph 1000.5mb 44f 35f
11:42 11 15 mph 1000.5mb 44f 35f
11:36 11 16 mph 1000.6mb 44f 36f
11:30 11 15 mph 1000.7mb 44f 36f
11:24 10 16 mph 1000.6mb 44f 36f
11:18 13 17 mph 1000.6mb 44f 36f
11:12 14 20 mph 1000.7mb 44f 36f
11:06 11 20 mph 1000.7mb 44f 36f
11:00 13 18 mph 1000.8mb 44f 36f
10:54 11 17 mph 1000.9mb 44f 36f
10:48 15 20 mph 1000.9mb 44f 36f
10:42 14 20 mph 1001mb 44f 36f
10:36 14 17 mph 1001.1mb 44f 36f
10:30 13 17 mph 1001.1mb 44f 36f
10:24 14 21 mph 1001.2mb 44f 37f
10:18 13 20 mph 1001.2mb 44f 37f
10:12 11 15 mph 1001.3mb 44f 36f
10:06 13 18 mph 1001.3mb 44f 36f
10:00 9 15 mph 1001.3mb 44f 36f
9:54 10 15 mph 1001.3mb 44f 36f
9:48 9 14 mph 1001.4mb 44f 36f
9:42 7 14 mph 1001.4mb 44f 37f
9:36 7 13 mph 1001.5mb 44f 37f
9:30 8 13 mph 1001.5mb 44f 37f
9:24 9 15 mph 1001.6mb 44f 36f
9:18 8 15 mph 1001.7mb 44f 37f
9:12 9 13 mph 1001.7mb 44f 36f
9:06 8 14 mph 1001.8mb 44f 37f
9:00 7 13 mph 1001.8mb 44f 37f
8:54 10 16 mph 1001.9mb 44f 37f
8:48 14 16 mph 1002mb 44f 37f
8:42 10 15 mph 1002.1mb 44f 37f
8:36 11 15 mph 1002.1mb 44f 37f
8:30 13 17 mph 1002.2mb 44f 37f
8:24 13 16 mph 1002.3mb 44f 37f
8:18 13 17 mph 1002.3mb 44f 37f
8:12 13 16 mph 1002.3mb 44f 38f
8:06 14 16 mph 1002.4mb 44f 38f
8:00 11 17 mph 1002.4mb 44f 38f
7:54 11 14 mph 1002.4mb 44f 38f
7:48 10 17 mph 1002.5mb 44f 39f
7:42 10 13 mph 1002.7mb 44f 39f
7:36 8 13 mph 1002.8mb 44f 39f
7:30 11 17 mph 1002.8mb 44f 39f
7:24 9 15 mph 1002.8mb 44f 40f
7:18 11 15 mph 1002.9mb 44f 40f
7:12 9 14 mph 1003mb 44f 40f
7:00 11 14 mph 1003.2mb 44f 40f
6:54 8 10 mph 1003.2mb 44f 40f
6:48 10 13 mph 1003.3mb 44f 40f
6:42 10 14 mph 1003.3mb 44f 40f
6:36 9 14 mph 1003.4mb 44f 40f
6:30 7 11 mph 1003.4mb 44f 40f
6:24 7 14 mph 1003.4mb 44f 40f
6:18 10 15 mph 1003.4mb 44f 40f
6:12 11 15 mph 1003.4mb 44f 40f
6:06 13 15 mph 1003.5mb 44f 40f
6:00 10 13 mph 1003.6mb 44f 40f
5:54 13 16 mph 1003.6mb 44f 40f
5:48 11 16 mph 1003.6mb 44f 40f
5:42 13 16 mph 1003.6mb 44f 40f
5:36 13 16 mph 1003.7mb 44f 40f
5:30 13 16 mph 1003.8mb 44f 40f
5:24 14 17 mph 1003.8mb 44f 40f
5:18 14 16 mph 1003.9mb 44f 40f
5:12 11 17 mph 1004mb 44f 40f
5:06 13 16 mph 1004mb 44f 40f
5:00 14 22 mph 1004.1mb 44f 40f
4:54 13 14 mph 1004.1mb 44f 40f
4:48 10 14 mph 1004.1mb 44f 41f
4:42 11 14 mph 1004.1mb 44f 40f
4:36 10 16 mph 1004.1mb 44f 41f
4:30 11 16 mph 1004.2mb 44f 40f
4:18 13 16 mph 1004.2mb 44f 41f
4:12 13 17 mph 1004.3mb 44f 40f
4:00 13 18 mph 1004.6mb 44f 41f
3:48 17 22 mph 1004.6mb 44f 41f
3:42 13 16 mph 1004.8mb 44f 41f
3:36 14 16 mph 1004.9mb 44f 41f
3:30 10 15 mph 1005mb 44f 41f
3:24 13 16 mph 1005.1mb 44f 41f
3:12 16 22 mph 1004.9mb 44f 41f
3:00 16 21 mph 1005.2mb 44f 42f
2:54 15 17 mph 1005.3mb 44f 41f
2:48 10 14 mph 1005.4mb 44f 41f
2:42 11 15 mph 1005.5mb 44f 41f
2:36 13 18 mph 1005.6mb 44f 41f
2:30 13 20 mph 1005.7mb 44f 41f
2:24 9 14 mph 1005.9mb 44f 41f
2:12 8 14 mph 1006mb 44f 41f
2:06 9 15 mph 1006mb 44f 41f
2:00 14 17 mph 1005.7mb 44f 42f
1:54 14 15 mph 1005.8mb 44f 42f
1:48 7 11 mph 1006.2mb 44f 42f
1:42 8 14 mph 1006.2mb 44f 42f
1:36 14 18 mph 1006.2mb 44f 42f
1:30 13 17 mph 1006.1mb 44f 42f
1:24 13 16 mph 1006.1mb 44f 42f
1:18 14 18 mph 1006.3mb 44f 42f
1:06 6 10 mph 1006.7mb 44f 42f
1:00 6 8 mph 1006.9mb 44f 42f
12:54 6 11 mph 1007mb 44f 42f
12:48 10 13 mph 1007.1mb 44f 42f
12:42 9 15 mph 1007.2mb 44f 42f
12:36 10 16 mph 1007.3mb 44f 42f
12:30 14 18 mph 1007.4mb 44f 42f
12:24 17 23 mph 1007.5mb 44f 42f
12:18 14 21 mph 1007.6mb 44f -
12:12 15 18 mph 1007.6mb 44f -
12:06 15 22 mph 1007.8mb 44f -
12:00 13 16 mph 1008.1mb 44f 42f
11:54 15 18 mph 1008.4mb 44f 42f
11:48 11 21 mph 1008.7mb 44f 42f
11:42 15 18 mph 1008.6mb 44f 42f
11:36 16 20 mph 1008.9mb 44f 42f
11:30 17 22 mph 1008.9mb 44f 42f
11:24 18 22 mph 1009.1mb 44f 42f
11:18 15 18 mph 1009.2mb 44f 42f
11:12 15 22 mph 1009.5mb 44f 42f
11:06 15 18 mph 1009.5mb 44f 42f
11:00 15 20 mph 1009.6mb 44f 42f
10:54 17 20 mph 1009.4mb 44f 42f
10:48 14 20 mph 1009.7mb 44f 42f
10:42 16 21 mph 1010.1mb 44f 42f
10:36 15 22 mph 1010.5mb 44f 42f
10:30 13 17 mph 1010.8mb 44f 42f
10:24 13 17 mph 1010.9mb 44f 42f
10:18 9 21 mph 1011mb 44f 42f
10:06 10 14 mph 1011.1mb 44f 43f
10:00 14 17 mph 1011.2mb 44f 43f
9:54 13 17 mph 1011.4mb 44f 43f
9:48 13 20 mph 1011.6mb 44f 43f
9:42 16 20 mph 1011.7mb 44f 43f
9:36 15 21 mph 1011.9mb 44f 43f
9:30 14 18 mph 1012mb 44f 43f
9:24 16 21 mph 1012.1mb 44f 43f
9:18 15 18 mph 1012mb 44f 43f
9:12 18 23 mph 1012mb 44f 43f
9:06 17 21 mph 1012.2mb 44f 43f
9:00 17 22 mph 1012.3mb 44f 43f
8:54 16 21 mph 1012.4mb 44f 43f
8:48 16 20 mph 1012.4mb 44f 43f
8:42 17 22 mph 1012.3mb 44f 43f
8:36 18 22 mph 1012.2mb 44f 43f
8:24 17 23 mph 1012.3mb 44f 43f
8:18 18 23 mph 1012.3mb 44f 43f
8:12 18 22 mph 1012.4mb 43f 43f
8:06 20 22 mph 1012.4mb 43f 43f
8:00 20 22 mph 1012.3mb 43f 43f
7:54 17 21 mph 1012.4mb 43f 43f
7:48 16 18 mph 1012.4mb 44f 43f
7:42 15 18 mph 1012.3mb 44f 43f
7:36 17 20 mph 1012.2mb 44f 43f
7:30 18 21 mph 1012.4mb 44f 44f
7:24 18 21 mph 1012.6mb 44f 44f
7:18 18 21 mph 1012.5mb 44f 44f
7:12 18 22 mph 1012.6mb 44f 44f
7:06 18 22 mph 1012.7mb 44f 44f
7:00 18 22 mph 1012.8mb 44f 44f
6:54 16 21 mph 1012.9mb 44f 44f
6:48 15 20 mph 1013mb 44f 44f
6:42 15 20 mph 1013.1mb 44f 44f
6:36 16 22 mph 1013.3mb 44f 44f
6:30 13 20 mph 1013.3mb 44f -
6:24 15 20 mph 1013.2mb 44f -
6:18 16 20 mph 1013.1mb 44f -
6:12 14 16 mph 1013mb 44f 45f
6:06 13 16 mph 1013mb 44f 45f
5:54 11 15 mph 1013.2mb 44f 45f
5:48 11 15 mph 1013.2mb 44f 45f
5:42 8 11 mph 1013.2mb 44f 45f
5:36 9 13 mph 1013.2mb 44f 45f
5:30 8 11 mph 1013.1mb 44f 45f
5:24 7 10 mph 1013.1mb 44f 45f
5:18 5 8 mph 1013.2mb 44f 45f
5:12 5 7 mph 1013.3mb 44f 45f
5:06 2 6 mph 1013.3mb 44f 44f
5:00 3 8 mph 1013.2mb 44f 45f
4:54 7 9 mph 1013.2mb 44f 45f
4:48 10 11 mph 1013.1mb 44f 45f
4:42 10 13 mph 1013.2mb 44f 45f
4:36 11 13 mph 1013.3mb 44f 45f
4:30 9 13 mph 1013.4mb 44f 44f
4:24 3 8 mph 1013.5mb 44f 44f
4:12 7 8 mph 1013.8mb 44f 44f
3:54 3 6 mph 1014.1mb 44f 44f
3:48 2 3 mph 1014mb 44f 44f
3:42 1 5 mph 1014.1mb 44f 44f
3:36 2 5 mph 1014.3mb 44f 44f
3:30 2 9 mph 1014.4mb 44f 44f
3:12 1 5 mph 1014.6mb 44f 42f
3:06 5 6 mph 1014.7mb 44f 42f
3:00 6
mph
1014.8mb 44f 42f
2:54 6
mph
1014.9mb 44f 42f
2:48 3 7 mph 1015mb 44f 42f
2:42 3 6 mph 1015.1mb 44f 42f
2:36 5 6 mph 1015.2mb 44f 42f
2:30 5 6 mph 1015.2mb 44f 42f
2:24 3 5 mph 1015.2mb 44f 42f
2:18 3 5 mph 1015.3mb 44f 42f
2:12 3 6 mph 1015.3mb 44f 42f
2:06 3 7 mph 1015.3mb 44f 42f
1:54 2 5 mph 1015.2mb 44f 42f
1:48 2 3 mph 1015.2mb 44f 42f
1:42 1 2 mph 1015.4mb 43f 43f
1:36  -  2 mph 1015.4mb 43f 43f
1:30 2 5 mph 1015.5mb 43f 44f
1:24 1 5 mph 1015.5mb 43f 44f
1:18 2 5 mph 1015.5mb 43f 44f
1:12  -  5 mph 1015.6mb 43f 44f
1:06 3 7 mph 1015.6mb 43f 44f
1:00 3 6 mph 1015.7mb 43f 44f
12:54 3 6 mph 1015.7mb 43f 44f
12:48 3 7 mph 1015.7mb 43f 44f
12:42 5 6 mph 1015.8mb 43f 44f
12:36 5 9 mph 1015.9mb 43f 44f
12:30 8 13 mph 1015.9mb 43f 44f
12:24 3 6 mph 1016mb 43f 43f
12:18 2 7 mph 1016.1mb 44f 43f
12:12 5 8 mph 1016mb 44f 43f
12:06 5 7 mph 1016.1mb 44f 43f
12:00 6 8 mph 1016.2mb 44f 43f
mar 12/16 11:54 2 7 mph 1016.3mb 44f 43f
11:48 5 8 mph 1016.3mb 44f 43f
11:42 5 7 mph 1016.4mb 44f 43f
11:36 5 7 mph 1016.4mb 44f 43f
11:30 6 8 mph 1016.5mb 44f 43f
11:24 3 8 mph 1016.5mb 43f 43f
11:18 5 8 mph 1016.6mb 43f 43f
11:12 5 8 mph 1016.5mb 43f 43f
11:06 6 8 mph 1016.6mb 43f 43f
11:00 5 7 mph 1016.6mb 43f 43f
10:54 5 7 mph 1016.7mb 43f 42f
10:48 5 7 mph 1016.8mb 43f 42f
10:42 3 6 mph 1016.9mb 43f 42f
10:36 5 8 mph 1016.9mb 43f 42f
10:30 3 6 mph 1016.9mb 43f 42f
10:24 5 8 mph 1016.8mb 43f 42f
10:18 5 9 mph 1016.9mb 43f 42f
10:12 5 7 mph 1017mb 43f 42f
10:06 5 8 mph 1017mb 43f 42f
10:00 6 9 mph 1017.1mb 43f 42f
9:54 5 7 mph 1017.1mb 43f 42f
9:48 3 6 mph 1017.3mb 43f 42f
9:42 3 6 mph 1017.4mb 43f 42f
9:36 5 7 mph 1017.3mb 43f 41f
9:30 3 7 mph 1017.3mb - 41f
9:24 3 7 mph 1017.3mb - 41f
9:18 2 3 mph 1017.3mb 43f 41f
9:12 1 3 mph 1017.4mb 43f 41f
9:06 3 8 mph 1017.4mb 43f 41f
9:00 7 8 mph 1017.4mb 43f 41f
8:54 7 8 mph 1017.4mb 43f 41f
8:48 7 8 mph 1017.5mb 43f 41f
8:42 8 9 mph 1017.6mb 43f 40f
8:36 9
mph
1017.6mb 43f 40f
8:30 9 10 mph 1017.8mb 43f 40f
8:24 9 10 mph 1017.8mb 43f 40f
8:18 9 10 mph 1017.9mb 43f 40f
8:12 8 10 mph 1018mb 43f 40f
8:06 7 8 mph 1018.1mb 43f 40f
8:00 2 3 mph 1018.1mb 43f 40f
7:54  -  3 mph 1018.2mb 43f 39f
7:48 2 3 mph 1018.3mb 43f 39f
7:42 2 5 mph 1018.4mb 43f 39f
7:36 2 6 mph 1018.4mb 43f 39f
7:30 2 5 mph 1018.4mb 43f 39f
7:24 1 2 mph 1018.4mb 43f 39f
7:18  -  1 mph 1018.5mb 43f 39f
7:12 1 2 mph 1018.6mb 43f 39f
7:06 3 5 mph 1018.7mb 43f 39f
7:00 3 5 mph 1018.7mb 43f 38f
6:54 3 6 mph 1018.8mb 43f 39f
6:48 5 6 mph 1019mb 43f 38f
6:42 3 5 mph 1019.1mb 43f 38f
6:36 1 2 mph 1019.2mb 43f 38f
6:30  -  1 mph 1019.3mb 43f 38f
6:24  -  1 mph 1019.4mb 43f 38f
6:18 1 2 mph 1019.3mb 43f 38f
6:12  -  1 mph 1019.3mb 44f 38f
6:06  -  1 mph 1019.3mb 44f 37f
5:54  -  1 mph 1019.3mb 44f 37f
5:48  -  2 mph 1019.4mb 43f 37f
5:42  -  2 mph 1019.3mb 44f 37f
5:36 3
mph
1019.2mb 44f 37f
5:30 2
mph
1019.2mb 44f 37f
5:24 1 3 mph 1019.2mb 44f 37f
5:18 2 3 mph 1019.3mb 44f 37f
5:12 2 3 mph 1019.3mb 44f 37f
5:06 3 5 mph 1019.2mb 44f 37f
5:00 2 3 mph 1019.2mb 44f 37f
4:54 2 3 mph 1019.3mb 44f 37f
4:48 2 3 mph 1019.4mb 44f 37f
4:42 2 3 mph 1019.5mb 44f 37f
4:36 3 5 mph 1019.5mb 44f 37f
4:30 3 5 mph 1019.5mb 44f 37f
4:24 5 6 mph 1019.6mb 44f 37f
4:12 3 7 mph 1019.7mb 44f 38f
4:06 6 8 mph 1019.8mb 44f 38f
4:00 3 7 mph 1019.8mb 44f 38f
3:54 6 8 mph 1019.7mb 44f 38f
3:48 8 10 mph 1019.7mb 44f 38f
3:42 7 9 mph 1019.6mb 44f 38f
3:36 6 9 mph 1019.6mb 44f 38f
3:30 7 9 mph 1019.6mb 44f 38f
3:24 7 10 mph 1019.6mb 44f 37f